Regional Weather Roundup
Issued by NWS Portland, ME

Home | Current Version | Previous Version | Text Only | Print | Product List | Glossary On
Versions: 1 2 3 4 5 6 7 8 9 10 11 12 13 14 15 16 17 18 19 20 21 22 23 24 25 26 27 28 29 30 31 32 33 34 35 36 37 38 39 40 41 42 43 44 45 46 47 48 49 50
000
ASUS41 KGYX 071610
RWRGYX
WEATHER ROUNDUP FOR MAINE AND NEW HAMPSHIRE
NATIONAL WEATHER SERVICE GRAY ME
1200 PM EDT TUE JUL 07 2015

MEZ002-005-006-010-012-015-018-020-021-024-026-027-029-071700-
MAINE

CITY           SKY/WX    TMP DP  RH WIND       PRES   REMARKS
PORTLAND       MOSUNNY   75  68  78 S14G22    30.07F
SANFORD        PTSUNNY   82  68  61 S9        30.06F
BAR HARBOR     SUNNY     72  66  83 S18       30.10F
WISCASSET      PTSUNNY   76  65  68 S8        30.09F
ROCKLAND       SUNNY     68  63  83 S10       30.09F
FRYEBURG       CLOUDY    83  69  62 S7        30.04F
AUGUSTA        PTSUNNY   78  66  66 S12G21    30.06F
WATERVILLE     SUNNY     79  64  61 S12G20    30.02
BANGOR         MOSUNNY   80  66  62 S13       30.05F
GREENVILLE       N/A     78  62  57 SE9       30.01F
MILLINOCKET    MOSUNNY   81  63  54 S8G18     30.02F
HOULTON        MOSUNNY   81  61  50 S13G23    30.00F
PRESQUE ISLE   MOSUNNY   81  55  41 S13G21    29.99F
FRENCHVILLE    MOSUNNY   78  60  53 S9G18     29.98F
CARIBOU        MOSUNNY   81  58  45 SW10G17   29.98F
$$

NHZ002-005-008-009-011-012-014-071700-
NEW HAMPSHIRE

CITY           SKY/WX    TMP DP  RH WIND       PRES   REMARKS
PORTSMOUTH     PTSUNNY   80  71  72 SE13      30.05F
ROCHESTER      PTSUNNY   82  69  64 S8        30.05F
NASHUA         PTSUNNY   80  71  74 VRB6      30.06F
MANCHESTER     PTSUNNY   81  69  67 SE10      30.03F
CONCORD        CLOUDY    79  68  69 S12       30.05F
LACONIA        CLOUDY    77  66  69 S12       30.04F
PLYMOUTH       CLOUDY    75  69  84 E3        30.04F
BERLIN         SUNNY     81  64  56 SE12      30.01F
WHITEFIELD     MOSUNNY   81  65  58 SW7       30.01F
JAFFREY        PTSUNNY   77  67  71 S9        30.07F
KEENE          CLOUDY    79  66  65 S12G20    30.04F
LEBANON        PTSUNNY   82  67  60 SW13G21   30.00F
MT WASHINGTON  FOG       55  55 100 S30G39      N/A  VSB 0
$$

VTZ005-007-008-071700-
VERMONT

CITY           SKY/WX    TMP DP  RH WIND       PRES   REMARKS
ST JOHNSBURY     N/A     78  65  63 MISG      29.98F
MONTPELIER     PTSUNNY   78  66  66 SE13      30.04F
BURLINGTON     PTSUNNY   79  67  66 S10       29.96F
$$

MAZ007-012-024-CTZ003-RIZ002-NYZ038-NYZ072-071700-
SOUTHERN NEW ENGLAND AND NY

CITY           SKY/WX    TMP DP  RH WIND       PRES   REMARKS
BOSTON         PTSUNNY   77  69  76 E7        30.07F
WORCESTER      PTSUNNY   77  68  73 S12       30.09F
NANTUCKET      CLOUDY    72  68  87 SE12      30.12F FOG
PROVIDENCE     PTSUNNY   78  73  84 S13       30.09F
HARTFORD       PTSUNNY   80  70  71 S9        30.02F
ALBANY         PTSUNNY   79  69  71 S9        29.98F
NEW YORK CITY  PTSUNNY   85  72  65 S17       30.00F HX  91
$$

ANZ081-ANZ082-ANZ150-NHZ014-MEZ023>029-071700-
COASTAL MARINE OBSERVATIONS

STATION/POSITION TIME  TEMP    WIND        PRES    WAVE
                       AIR SEA DIR/SP/G            HT/PER
                 (UTC) (F)     (DEG/KT/KT) (MB)    (FT/S)
MOUNT DESERT ROC 1600   61     170/ 15/ 16 1020.2F
MATINICUS ROCK   1600   60     190/ 19/ 20 1019.1F
ISLE OF SHOALS   1600   68     160/ 17/ 18 1017.5F
JEFFREYS LEDGE   1503      62                N/A     2/ 7
CASHES LEDGE BUO 1550   62 60              1019.7F   2/ 7
GEORGES BANK BUO 1550   63 60  120/  8/  8 1021.9F   2/ 7
$$

.............KEY..............
   WCI - WIND CHILL
   TC  - TEMPERATURE IN CELSIUS
   VSB - VISIBILITY IN MILES
   HX  - HEAT INDEX
   FAIR- INDICATES FEW OR NO CLOUDS BELOW 12,000 FT, WITH NO
         SIGNIFICANT WEATHER AND/OR OBSTRUCTIONS TO VISIBILITY.




USA.gov is the U.S. government's official web portal to all federal, state and local government web resources and services.